North Windham, CT

3:30 AM EST on February 06, 2016 (GMT -0500)
Windham

Weather History for KIJD - April, 2013

Change the Weather History Date:

Wednesday, April 24, 2013

  Actual Average (KBDL) Record (KBDL)
Temperature  
Mean Temperature 58 °F 53 °F  
Max Temperature 73 °F 64 °F 88 °F (2001)
Min Temperature 43 °F 41 °F 27 °F (1930)
Degree Days  
Heating Degree Days 8 13  
Month to date heating degree days 405  
Since 1 July heating degree days 5686  
Cooling Degree Days 0 0  
Month to date cooling degree days 0  
Year to date cooling degree days 0  
Growing Degree Days 8 (Base 50)    
Moisture  
Dew Point 42 °F    
Average Humidity 68    
Maximum Humidity 89    
Minimum Humidity 30    
Precipitation  
Precipitation 0.00 in 0.13 in 2.25 in (1944)
Month to date precipitation 2.97  
Year to date precipitation 12.71  
Snow  
Snow 0.00 in 0.10 in 1.10 in (1967)
Month to date snowfall 1.4  
Since 1 July snowfall 40.5  
Snow Depth -    
Sea Level Pressure  
Sea Level Pressure 29.94 in    
Wind  
Wind Speed 9 mph (WSW)    
Max Wind Speed 16 mph    
Max Gust Speed 22 mph    
Visibility 10 miles    
Events      
T = Trace of Precipitation, MM = Missing Value Source: NWS Daily Summary

Daily Weather History Graph

Daily Weather History Graph

Search for Another Location

Airport or City:

Trip Planner

Search our weather history database for the weather conditions in past years. The results will help you decide how hot, cold, wet, or windy it might be!

Date:

Astronomy

Apr. 24, 2013 Rise Set
Actual Time 5:54 AM EDT 7:39 PM EDT
Civil Twilight 5:25 AM EDT 8:09 PM EDT
Nautical Twilight 4:49 AM EDT 8:45 PM EDT
Astronomical Twilight 4:10 AM EDT 9:24 PM EDT
Moon 6:39 PM EDT (4/24) 4:57 AM EDT (4/24)
Length of Visible Light 14h 44m
Length of Day
13h 44m
Waxing Gibbous, 98% of the Moon is Illuminated
Apr 24
Waxing Gibbous
Apr 25
Full
May 2
Last Quarter
May 9
New
May 18
First Quarter

Hourly Weather History & Observations

Time (EDT) Temp. Windchill Dew Point Humidity Pressure Visibility Wind Dir Wind Speed Gust Speed Precip Events Conditions
12:52 AM 43.0 °F 37.7 °F 37.9 °F 82% 30.06 in 10.0 mi North 9.2 mph 19.6 mph N/A   Overcast
1:52 AM 43.0 °F 37.7 °F 39.0 °F 86% 30.04 in 10.0 mi North 9.2 mph 18.4 mph N/A   Overcast
2:52 AM 44.1 °F 39.5 °F 39.0 °F 82% 30.02 in 10.0 mi North 8.1 mph 16.1 mph N/A   Overcast
3:52 AM 44.1 °F 37.4 °F 39.0 °F 82% 29.99 in 10.0 mi North 13.8 mph - N/A   Overcast
4:52 AM 44.1 °F 38.6 °F 39.0 °F 82% 30.00 in 10.0 mi NNW 10.4 mph - N/A   Overcast
5:52 AM 43.0 °F 38.2 °F 39.9 °F 89% 30.00 in 10.0 mi North 8.1 mph - N/A   Overcast
6:52 AM 44.1 °F 40.1 °F 39.0 °F 82% 30.02 in 10.0 mi NW 6.9 mph - N/A   Overcast
7:52 AM 44.1 °F 39.0 °F 39.0 °F 82% 30.04 in 10.0 mi NNW 9.2 mph - N/A   Overcast
8:52 AM 46.0 °F 41.9 °F 39.9 °F 79% 30.03 in 10.0 mi NW 8.1 mph - N/A   Overcast
9:40 AM 50.0 °F - 41.0 °F 71% 30.00 in 10.0 mi West 5.8 mph - N/A   Scattered Clouds
9:52 AM 50.0 °F - 41.0 °F 71% 29.99 in 10.0 mi West 6.9 mph - N/A   Clear
10:52 AM 55.9 °F - 42.1 °F 60% 29.98 in 10.0 mi WSW 5.8 mph - N/A   Clear
11:52 AM 61.0 °F - 43.0 °F 52% 29.96 in 10.0 mi WNW 6.9 mph - N/A   Clear
12:52 PM 64.9 °F - 39.9 °F 40% 29.91 in 10.0 mi SW 5.8 mph - N/A   Clear
1:52 PM 69.1 °F - 37.9 °F 32% 29.88 in 10.0 mi Calm Calm - N/A   Clear
2:52 PM 72.0 °F - 39.0 °F 30% 29.85 in 10.0 mi South 12.7 mph 18.4 mph N/A   Clear
3:52 PM 72.0 °F - 42.1 °F 34% 29.85 in 10.0 mi SSW 13.8 mph 21.9 mph N/A   Partly Cloudy
4:52 PM 69.1 °F - 42.1 °F 38% 29.84 in 10.0 mi South 13.8 mph 20.7 mph N/A   Clear
5:52 PM 66.0 °F - 44.1 °F 45% 29.86 in 10.0 mi South 16.1 mph - N/A   Clear
6:52 PM 60.1 °F - 44.1 °F 55% 29.87 in 10.0 mi South 13.8 mph - N/A   Clear
7:52 PM 57.0 °F - 46.0 °F 67% 29.87 in 10.0 mi South 9.2 mph - N/A   Clear
8:52 PM 52.0 °F - 46.0 °F 80% 29.90 in 10.0 mi SSW 11.5 mph - N/A   Clear
9:14 PM 51.8 °F - 46.4 °F 82% 29.92 in 10.0 mi SSW 13.8 mph 20.7 mph N/A   Mostly Cloudy
9:52 PM 51.1 °F - 46.0 °F 83% 29.91 in 10.0 mi South 12.7 mph 19.6 mph N/A   Mostly Cloudy
10:52 PM 51.1 °F - 46.0 °F 83% 29.90 in 10.0 mi South 12.7 mph - N/A   Overcast
11:22 PM 51.8 °F - 46.4 °F 82% 29.90 in 9.0 mi South 10.4 mph - N/A   Overcast
11:52 PM 51.1 °F - 48.0 °F 89% 29.90 in 9.0 mi SSW 9.2 mph - N/A   Overcast